Home   Weather   Huambo   Past weeks

Flag for Angola Past Weather in Huambo, Angola — Yesterday and Last 2 Weeks

Now
82 °F

Scattered clouds.


Feels Like: 88 °F
Forecast: 50 / 77 °F
Wind: 5 mph from South

Location: Luanda Airport

Current Time: Apr 23, 2017 at 9:16:31 am

Latest Report: Apr 23, 2017 at 9:00 am


Visibility: N/A

Pressure: 29.89 "Hg (24.59 "Hg at 1720m altitude)

Humidity: 74%

Dew Point: 73 °F

Location of HuamboLocation

Past Weather in Huambo — Graph

°F

Huambo Temperature Yesterday

Maximum temperature yesterday: 86 °F (at 3:00 pm)
Minimum temperature yesterday: 77 °F (at 4:00 am)
Average temperature yesterday: 81 °F

High & Low Weather Summary for the Past Weeks

 TemperatureHumidityPressure
High93 °F (Apr 9, 1:00 pm)100% (Apr 14, 12:00 pm)29.92 "Hg (Apr 14, 12:00 pm)
Low73 °F (Apr 17, 2:00 am)49% (Apr 9, 1:00 pm)29.65 "Hg (Apr 11, 3:00 pm)
Average81 °F83%29.80 "Hg
* Reported Apr 8 8:00 am — Apr 23 8:00 am, Huambo, Weather by CustomWeather, © 2017

Note: Actual official high and low records may vary slightly from our data, if they occured in-between our weather recording intervals... More about our weather records

Advertising

Huambo Weather History for the Previous 24 Hours

Scroll right to see more
 ConditionsComfort  
Time TempWeatherWind HumidityBarometerVisibility
8:00 am
Sun, Apr 23
79 °FScattered clouds.3 mph89%29.89 "HgN/A
7:00 am75 °FScattered clouds.3 mph94%29.86 "HgN/A
6:00 am75 °FPassing clouds.3 mph94%29.83 "HgN/A
5:00 am77 °FPassing clouds.3 mph89%29.83 "HgN/A
4:00 am77 °FPassing clouds.5 mph94%29.83 "HgN/A
3:00 am77 °FPassing clouds.6 mph94%29.83 "HgN/A
2:00 am79 °FPassing clouds.7 mph89%29.83 "HgN/A
1:00 am79 °FPassing clouds.9 mph89%29.83 "HgN/A
12:00 am79 °FPassing clouds.9 mph89%29.83 "HgN/A
11:00 pm
Sat, Apr 22
79 °FPassing clouds.8 mph89%29.83 "HgN/A
10:00 pm81 °FPassing clouds.9 mph84%29.83 "HgN/A
9:00 pm81 °FPassing clouds.9 mph84%29.80 "HgN/A
8:00 pm82 °FPassing clouds.9 mph79%29.80 "HgN/A
7:00 pm82 °FPassing clouds.9 mph74%29.77 "HgN/A
6:00 pm82 °FPassing clouds.9 mph74%29.77 "HgN/A
5:00 pm84 °FPassing clouds.12 mph74%29.77 "HgN/A
4:00 pm86 °FPassing clouds.12 mph75%29.77 "HgN/A
3:00 pm86 °FPassing clouds.12 mph75%29.77 "HgN/A
2:00 pm84 °FPassing clouds.9 mph79%29.77 "HgN/A
1:00 pm84 °FScattered clouds.9 mph74%29.83 "HgN/A
12:00 pm84 °FScattered clouds.7 mph74%29.83 "HgN/A
11:00 am84 °FScattered clouds.5 mph74%29.86 "HgN/A
10:00 am82 °FScattered clouds.5 mph79%29.89 "HgN/A
9:00 am84 °FScattered clouds.2 mph74%29.89 "HgN/A
Weather by CustomWeather, © 2017

See weather overviewHow to use our weather pages